Time,TemperatureF,DewpointF,PressureIn,WindDirection,WindDirectionDegrees,WindSpeedMPH,WindSpeedGustMPH,Humidity,HourlyPrecipIn,Conditions,Clouds,dailyrainin,SoftwareType,DateUTC
2013-08-10 00:00:00,76.2,74.3,29.10,NW,315,0.0,0.0,94,0.00,,,0.00,Wunderground v.1.15,2013-08-10 04:00:00,
2013-08-10 00:05:00,76.1,74.2,29.10,North,360,0.0,0.0,94,0.00,,,0.00,Wunderground v.1.15,2013-08-10 04:05:00,
2013-08-10 00:06:00,76.1,74.0,29.10,NW,315,0.0,0.0,94,0.00,,,0.00,weatherlink.com 1.10,2013-08-10 04:06:00,
2013-08-10 00:10:00,76.1,74.2,29.10,NW,315,0.0,0.0,94,0.00,,,0.00,Wunderground v.1.15,2013-08-10 04:10:00,
2013-08-10 00:15:00,76.1,74.2,29.10,NW,315,0.0,0.0,94,0.00,,,0.00,Wunderground v.1.15,2013-08-10 04:15:00,
2013-08-10 00:20:00,76.0,74.1,29.09,NW,314,0.0,0.0,94,0.00,,,0.00,Wunderground v.1.15,2013-08-10 04:20:00,
2013-08-10 00:30:00,75.9,74.0,29.10,NW,315,0.0,0.0,94,0.00,,,0.00,Wunderground v.1.15,2013-08-10 04:30:00,
2013-08-10 00:36:00,75.8,74.0,29.10,NW,315,0.0,0.0,94,0.00,,,0.00,weatherlink.com 1.10,2013-08-10 04:36:00,
2013-08-10 00:45:00,75.7,73.8,29.10,NW,316,0.0,0.0,94,0.00,,,0.00,Wunderground v.1.15,2013-08-10 04:45:00,
2013-08-10 00:51:00,75.6,74.0,29.10,NW,316,0.0,0.0,94,0.00,,,0.00,weatherlink.com 1.10,2013-08-10 04:51:00,
2013-08-10 01:00:00,75.4,73.6,29.09,NW,315,0.0,0.0,94,0.00,,,0.00,Wunderground v.1.15,2013-08-10 05:00:00,
2013-08-10 01:06:00,75.2,73.0,29.09,NW,316,0.0,0.0,94,0.00,,,0.00,weatherlink.com 1.10,2013-08-10 05:06:00,
2013-08-10 01:15:00,75.1,73.6,29.10,NW,316,0.0,0.0,95,0.00,,,0.00,Wunderground v.1.15,2013-08-10 05:15:00,
2013-08-10 01:20:00,75.1,73.6,29.10,NW,316,0.0,0.0,95,0.00,,,0.00,Wunderground v.1.15,2013-08-10 05:20:00,
2013-08-10 01:30:00,75.1,73.6,29.09,NW,316,0.0,0.0,95,0.00,,,0.00,Wunderground v.1.15,2013-08-10 05:30:00,
2013-08-10 01:35:00,74.9,73.1,29.09,NW,315,0.0,0.0,94,0.00,,,0.00,Wunderground v.1.15,2013-08-10 05:35:00,
2013-08-10 01:45:00,74.6,73.1,29.09,NW,316,0.0,0.0,95,0.00,,,0.00,Wunderground v.1.15,2013-08-10 05:45:00,
2013-08-10 01:50:00,74.6,73.1,29.09,NW,316,0.0,0.0,95,0.00,,,0.00,Wunderground v.1.15,2013-08-10 05:50:00,
2013-08-10 01:55:00,74.7,73.2,29.09,NW,316,0.0,0.0,95,0.00,,,0.00,Wunderground v.1.15,2013-08-10 05:55:00,
2013-08-10 02:00:00,74.7,73.2,29.09,NW,316,0.0,0.0,95,0.00,,,0.00,Wunderground v.1.15,2013-08-10 06:00:00,
2013-08-10 02:06:00,74.8,73.0,29.09,NW,316,0.0,0.0,95,0.00,,,0.00,weatherlink.com 1.10,2013-08-10 06:06:00,
2013-08-10 02:15:00,74.7,73.2,29.09,NW,315,0.0,0.0,95,0.00,,,0.00,Wunderground v.1.15,2013-08-10 06:15:00,
2013-08-10 02:20:00,74.7,73.2,29.09,North,360,0.0,0.0,95,0.00,,,0.00,Wunderground v.1.15,2013-08-10 06:20:00,
2013-08-10 02:30:00,74.6,73.1,29.09,North,360,0.0,0.0,95,0.00,,,0.00,Wunderground v.1.15,2013-08-10 06:30:00,
2013-08-10 02:35:00,74.5,73.0,29.09,NW,316,0.0,0.0,95,0.00,,,0.00,Wunderground v.1.15,2013-08-10 06:35:00,
2013-08-10 02:40:00,74.4,72.9,29.09,NW,316,0.0,0.0,95,0.00,,,0.00,Wunderground v.1.15,2013-08-10 06:40:00,
2013-08-10 02:49:00,74.4,72.9,29.09,NW,316,0.0,0.0,95,0.00,,,0.00,Wunderground v.1.15,2013-08-10 06:49:00,
2013-08-10 02:54:00,74.3,72.8,29.09,North,360,0.0,0.0,95,0.00,,,0.00,Wunderground v.1.15,2013-08-10 06:54:00,
2013-08-10 03:00:00,74.0,72.5,29.09,NW,316,0.0,0.0,95,0.00,,,0.00,Wunderground v.1.15,2013-08-10 07:00:00,
2013-08-10 03:06:00,73.9,72.0,29.09,NW,316,0.0,0.0,95,0.00,,,0.00,weatherlink.com 1.10,2013-08-10 07:06:00,
2013-08-10 03:15:00,73.9,72.7,29.09,NW,316,0.0,0.0,96,0.00,,,0.00,Wunderground v.1.15,2013-08-10 07:15:00,
2013-08-10 03:20:00,73.9,72.7,29.09,NW,307,0.0,0.0,96,0.00,,,0.00,Wunderground v.1.15,2013-08-10 07:20:00,
2013-08-10 03:25:00,73.9,72.7,29.09,NW,306,0.0,0.0,96,0.00,,,0.00,Wunderground v.1.15,2013-08-10 07:25:00,
2013-08-10 03:30:00,74.0,72.8,29.09,NW,306,0.0,0.0,96,0.00,,,0.00,Wunderground v.1.15,2013-08-10 07:30:00,
2013-08-10 03:35:00,73.9,72.4,29.09,North,360,0.0,0.0,95,0.00,,,0.00,Wunderground v.1.15,2013-08-10 07:35:00,
2013-08-10 03:39:00,73.8,72.6,29.09,NW,307,0.0,0.0,96,0.00,,,0.00,Wunderground v.1.15,2013-08-10 07:39:00,
2013-08-10 03:49:00,73.7,72.5,29.09,NW,308,0.0,0.0,96,0.00,,,0.00,Wunderground v.1.15,2013-08-10 07:49:00,
2013-08-10 03:55:00,73.7,72.5,29.09,NW,307,0.0,0.0,96,0.00,,,0.00,Wunderground v.1.15,2013-08-10 07:55:00,
2013-08-10 04:00:00,73.6,72.4,29.09,NW,306,0.0,0.0,96,0.00,,,0.00,Wunderground v.1.15,2013-08-10 08:00:00,
2013-08-10 04:06:00,73.5,72.0,29.09,North,360,0.0,0.0,96,0.00,,,0.00,weatherlink.com 1.10,2013-08-10 08:06:00,
2013-08-10 04:15:00,73.5,72.3,29.09,NW,308,0.0,0.0,96,0.00,,,0.00,Wunderground v.1.15,2013-08-10 08:15:00,
2013-08-10 04:21:00,73.3,72.0,29.09,North,360,0.0,0.0,95,0.00,,,0.00,weatherlink.com 1.10,2013-08-10 08:21:00,
2013-08-10 04:30:00,73.2,72.0,29.09,NW,308,0.0,0.0,96,0.00,,,0.00,Wunderground v.1.15,2013-08-10 08:30:00,
2013-08-10 04:35:00,73.1,71.9,29.09,NW,307,0.0,0.0,96,0.00,,,0.00,Wunderground v.1.15,2013-08-10 08:35:00,
2013-08-10 04:39:00,73.2,72.0,29.09,North,360,0.0,0.0,96,0.00,,,0.00,Wunderground v.1.15,2013-08-10 08:39:00,
2013-08-10 04:44:00,73.2,72.0,29.09,NW,307,0.0,0.0,96,0.00,,,0.00,Wunderground v.1.15,2013-08-10 08:44:00,
2013-08-10 04:50:00,73.3,72.0,29.09,NW,308,0.0,0.0,96,0.00,,,0.00,weatherlink.com 1.10,2013-08-10 08:50:00,
2013-08-10 05:00:00,73.3,72.1,29.09,NW,307,0.0,0.0,96,0.00,,,0.00,Wunderground v.1.15,2013-08-10 09:00:00,
2013-08-10 05:06:00,73.3,72.0,29.09,North,360,0.0,0.0,96,0.00,,,0.00,weatherlink.com 1.10,2013-08-10 09:06:00,
2013-08-10 05:15:00,73.1,71.9,29.09,North,360,0.0,0.0,96,0.00,,,0.00,Wunderground v.1.15,2013-08-10 09:15:00,
2013-08-10 05:20:00,73.0,71.8,29.09,North,360,0.0,0.0,96,0.00,,,0.00,Wunderground v.1.15,2013-08-10 09:20:00,
2013-08-10 05:30:00,72.9,71.7,29.10,NW,306,0.0,0.0,96,0.00,,,0.00,Wunderground v.1.15,2013-08-10 09:30:00,
2013-08-10 05:34:00,72.8,71.6,29.10,NW,314,0.0,0.0,96,0.00,,,0.00,Wunderground v.1.15,2013-08-10 09:34:00,
2013-08-10 05:39:00,72.8,71.6,29.10,NW,314,0.0,0.0,96,0.00,,,0.00,Wunderground v.1.15,2013-08-10 09:39:00,
2013-08-10 05:44:00,72.8,71.6,29.10,North,360,0.0,0.0,96,0.00,,,0.00,Wunderground v.1.15,2013-08-10 09:44:00,
2013-08-10 05:49:00,72.7,71.5,29.10,NW,313,0.0,0.0,96,0.00,,,0.00,Wunderground v.1.15,2013-08-10 09:49:00,
2013-08-10 05:54:00,72.7,71.5,29.10,NW,313,0.0,0.0,96,0.00,,,0.00,Wunderground v.1.15,2013-08-10 09:54:00,
2013-08-10 06:00:00,72.6,71.4,29.10,North,360,0.0,0.0,96,0.00,,,0.00,Wunderground v.1.15,2013-08-10 10:00:00,
2013-08-10 06:06:00,72.6,71.0,29.10,NW,313,0.0,0.0,96,0.00,,,0.00,weatherlink.com 1.10,2013-08-10 10:06:00,
2013-08-10 06:15:00,72.5,71.3,29.10,North,360,0.0,0.0,96,0.00,,,0.00,Wunderground v.1.15,2013-08-10 10:15:00,
2013-08-10 06:20:00,72.5,71.3,29.10,North,360,0.0,0.0,96,0.00,,,0.00,Wunderground v.1.15,2013-08-10 10:20:00,
2013-08-10 06:25:00,72.4,71.2,29.10,NW,313,0.0,0.0,96,0.00,,,0.00,Wunderground v.1.15,2013-08-10 10:25:00,
2013-08-10 06:34:00,72.2,71.0,29.10,NW,313,0.0,0.0,96,0.00,,,0.00,Wunderground v.1.15,2013-08-10 10:34:00,
2013-08-10 06:39:00,72.2,71.0,29.10,NW,314,0.0,0.0,96,0.00,,,0.00,Wunderground v.1.15,2013-08-10 10:39:00,
2013-08-10 06:44:00,72.2,71.0,29.11,NW,314,0.0,0.0,96,0.00,,,0.00,Wunderground v.1.15,2013-08-10 10:44:00,
2013-08-10 06:49:00,72.2,71.0,29.11,NW,313,0.0,0.0,96,0.00,,,0.00,Wunderground v.1.15,2013-08-10 10:49:00,
2013-08-10 06:54:00,72.2,71.0,29.11,NW,314,0.0,0.0,96,0.00,,,0.00,Wunderground v.1.15,2013-08-10 10:54:00,
2013-08-10 07:00:00,71.9,70.7,29.11,North,360,0.0,0.0,96,0.00,,,0.00,Wunderground v.1.15,2013-08-10 11:00:00,
2013-08-10 07:07:00,71.7,71.0,29.11,NW,314,0.0,0.0,96,0.00,,,0.00,weatherlink.com 1.10,2013-08-10 11:07:00,
2013-08-10 07:15:00,71.7,70.5,29.11,NW,313,0.0,0.0,96,0.00,,,0.00,Wunderground v.1.15,2013-08-10 11:15:00,
2013-08-10 07:20:00,71.7,70.5,29.12,NW,314,0.0,0.0,96,0.00,,,0.00,Wunderground v.1.15,2013-08-10 11:20:00,
2013-08-10 07:25:00,71.7,70.5,29.12,NW,314,0.0,0.0,96,0.00,,,0.00,Wunderground v.1.15,2013-08-10 11:25:00,
2013-08-10 07:30:00,71.7,70.5,29.12,NW,314,0.0,0.0,96,0.00,,,0.00,Wunderground v.1.15,2013-08-10 11:30:00,
2013-08-10 07:36:00,71.8,71.0,29.12,NW,313,0.0,0.0,96,0.00,,,0.00,weatherlink.com 1.10,2013-08-10 11:36:00,
2013-08-10 07:44:00,71.9,71.0,29.12,NW,314,0.0,0.0,97,0.00,,,0.00,Wunderground v.1.15,2013-08-10 11:44:00,
2013-08-10 07:49:00,72.1,71.2,29.12,NW,314,0.0,0.0,97,0.00,,,0.00,Wunderground v.1.15,2013-08-10 11:49:00,
2013-08-10 07:55:00,72.6,71.7,29.12,NW,313,0.0,0.0,97,0.00,,,0.00,Wunderground v.1.15,2013-08-10 11:55:00,
2013-08-10 08:00:00,73.2,72.3,29.12,NW,314,0.0,0.0,97,0.00,,,0.00,Wunderground v.1.15,2013-08-10 12:00:00,
2013-08-10 08:07:00,73.7,73.0,29.13,NW,310,0.0,0.0,97,0.00,,,0.00,weatherlink.com 1.10,2013-08-10 12:07:00,
2013-08-10 08:15:00,73.9,73.0,29.13,North,360,0.0,0.0,97,0.00,,,0.00,Wunderground v.1.15,2013-08-10 12:15:00,
2013-08-10 08:20:00,74.1,72.9,29.13,NW,310,0.0,0.0,96,0.00,,,0.00,Wunderground v.1.15,2013-08-10 12:20:00,
2013-08-10 08:25:00,74.2,73.0,29.13,NW,310,0.0,0.0,96,0.00,,,0.00,Wunderground v.1.15,2013-08-10 12:25:00,
2013-08-10 08:30:00,74.3,73.1,29.13,NW,311,0.0,0.0,96,0.00,,,0.00,Wunderground v.1.15,2013-08-10 12:30:00,
2013-08-10 08:35:00,74.5,73.3,29.13,NW,309,0.0,0.0,96,0.00,,,0.00,Wunderground v.1.15,2013-08-10 12:35:00,
2013-08-10 08:44:00,74.8,73.6,29.14,NW,310,0.0,0.0,96,0.00,,,0.00,Wunderground v.1.15,2013-08-10 12:44:00,
2013-08-10 08:50:00,75.0,73.8,29.13,NW,312,0.0,0.0,96,0.00,,,0.00,Wunderground v.1.15,2013-08-10 12:50:00,
2013-08-10 09:00:00,75.5,73.7,29.14,NW,318,0.0,0.0,94,0.00,,,0.00,Wunderground v.1.15,2013-08-10 13:00:00,
2013-08-10 09:07:00,75.9,74.0,29.14,NW,318,0.0,0.0,95,0.00,,,0.00,weatherlink.com 1.10,2013-08-10 13:07:00,
2013-08-10 09:15:00,76.7,74.5,29.14,NW,319,0.0,0.0,93,0.00,,,0.00,Wunderground v.1.15,2013-08-10 13:15:00,
2013-08-10 09:21:00,77.3,75.0,29.14,NW,317,0.0,0.0,92,0.00,,,0.00,weatherlink.com 1.10,2013-08-10 13:21:00,
2013-08-10 09:29:00,78.0,75.2,29.14,NNE,25,0.0,0.0,91,0.00,,,0.00,Wunderground v.1.15,2013-08-10 13:29:00,
2013-08-10 09:36:00,78.5,75.0,29.14,NNE,31,0.0,1.0,90,0.00,,,0.00,weatherlink.com 1.10,2013-08-10 13:36:00,
2013-08-10 09:45:00,78.8,75.3,29.14,NNE,29,0.0,0.0,89,0.00,,,0.00,Wunderground v.1.15,2013-08-10 13:45:00,
2013-08-10 09:50:00,79.3,75.4,29.13,NNE,25,0.0,0.0,88,0.00,,,0.00,Wunderground v.1.15,2013-08-10 13:50:00,
2013-08-10 10:00:00,79.9,75.0,29.14,NW,314,1.0,1.0,85,0.00,,,0.00,Wunderground v.1.15,2013-08-10 14:00:00,
2013-08-10 10:07:00,80.3,76.0,29.14,NNE,30,2.0,4.0,85,0.00,,,0.00,weatherlink.com 1.10,2013-08-10 14:07:00,
2013-08-10 10:15:00,80.6,75.3,29.14,NNE,24,2.0,2.0,84,0.00,,,0.00,Wunderground v.1.15,2013-08-10 14:15:00,
2013-08-10 10:22:00,80.6,76.0,29.14,NW,314,3.0,4.0,86,0.00,,,0.00,weatherlink.com 1.10,2013-08-10 14:22:00,
2013-08-10 10:29:00,80.6,75.0,29.14,NW,309,1.0,2.0,83,0.00,,,0.00,Wunderground v.1.15,2013-08-10 14:29:00,
2013-08-10 10:37:00,80.9,75.0,29.14,WNW,296,6.0,6.0,82,0.00,,,0.00,weatherlink.com 1.10,2013-08-10 14:37:00,
2013-08-10 10:44:00,80.8,75.2,29.15,NNE,17,2.0,3.0,83,0.00,,,0.00,Wunderground v.1.15,2013-08-10 14:44:00,
2013-08-10 10:49:00,80.9,75.2,29.14,NNW,327,1.0,2.0,83,0.00,,,0.00,Wunderground v.1.15,2013-08-10 14:49:00,
2013-08-10 11:00:00,81.1,75.1,29.15,NNW,329,2.0,2.0,82,0.00,,,0.00,Wunderground v.1.15,2013-08-10 15:00:00,
2013-08-10 11:07:00,81.4,75.0,29.15,NW,306,1.0,6.0,82,0.00,,,0.00,weatherlink.com 1.10,2013-08-10 15:07:00,
2013-08-10 11:14:00,81.8,75.8,29.15,NW,318,1.0,2.0,82,0.00,,,0.00,Wunderground v.1.15,2013-08-10 15:14:00,
2013-08-10 11:19:00,82.2,75.8,29.15,North,360,1.0,1.0,81,0.00,,,0.00,Wunderground v.1.15,2013-08-10 15:19:00,
2013-08-10 11:29:00,83.0,76.6,29.15,NNE,28,1.0,1.0,81,0.00,,,0.00,Wunderground v.1.15,2013-08-10 15:29:00,
2013-08-10 11:34:00,83.1,76.3,29.15,NE,35,1.0,2.0,80,0.00,,,0.00,Wunderground v.1.15,2013-08-10 15:34:00,
2013-08-10 11:39:00,83.3,76.5,29.15,NW,319,2.0,2.0,80,0.00,,,0.00,Wunderground v.1.15,2013-08-10 15:39:00,
2013-08-10 11:44:00,83.3,76.1,29.15,NNE,33,1.0,6.0,79,0.00,,,0.00,Wunderground v.1.15,2013-08-10 15:44:00,
2013-08-10 11:49:00,83.3,76.5,29.14,WNW,298,1.0,6.0,80,0.00,,,0.00,Wunderground v.1.15,2013-08-10 15:49:00,
2013-08-10 11:54:00,83.6,76.8,29.14,NNE,28,2.0,6.0,80,0.00,,,0.00,Wunderground v.1.15,2013-08-10 15:54:00,
2013-08-10 12:00:00,83.9,75.9,29.14,NE,39,3.0,3.0,77,0.00,,,0.00,Wunderground v.1.15,2013-08-10 16:00:00,
2013-08-10 12:07:00,84.4,76.0,29.14,NW,317,3.0,4.0,76,0.00,,,0.00,weatherlink.com 1.10,2013-08-10 16:07:00,
2013-08-10 12:14:00,84.7,76.3,29.13,NE,41,1.0,2.0,76,0.00,,,0.00,Wunderground v.1.15,2013-08-10 16:14:00,
2013-08-10 12:19:00,84.6,77.0,29.13,West,276,2.0,7.0,78,0.00,,,0.00,Wunderground v.1.15,2013-08-10 16:19:00,
2013-08-10 12:24:00,85.1,76.3,29.14,NW,308,3.0,7.0,75,0.00,,,0.00,Wunderground v.1.15,2013-08-10 16:24:00,
2013-08-10 12:34:00,86.0,76.3,29.13,NW,309,2.0,6.0,73,0.00,,,0.00,Wunderground v.1.15,2013-08-10 16:34:00,
2013-08-10 12:44:00,86.0,75.9,29.13,NE,43,2.0,6.0,72,0.00,,,0.00,Wunderground v.1.15,2013-08-10 16:44:00,
2013-08-10 12:49:00,85.9,76.2,29.13,NE,42,2.0,2.0,73,0.00,,,0.00,Wunderground v.1.15,2013-08-10 16:49:00,
2013-08-10 12:54:00,86.0,75.9,29.12,WNW,300,2.0,3.0,72,0.00,,,0.00,Wunderground v.1.15,2013-08-10 16:54:00,
2013-08-10 13:00:00,85.9,75.8,29.12,WNW,300,3.0,3.0,72,0.00,,,0.00,Wunderground v.1.15,2013-08-10 17:00:00,
2013-08-10 13:07:00,86.5,77.0,29.12,NNE,19,1.0,6.0,74,0.00,,,0.00,weatherlink.com 1.10,2013-08-10 17:07:00,
2013-08-10 13:14:00,86.6,76.1,29.12,NE,45,2.0,3.0,71,0.00,,,0.00,Wunderground v.1.15,2013-08-10 17:14:00,
2013-08-10 13:19:00,86.6,76.9,29.11,NW,307,2.0,2.0,73,0.00,,,0.00,Wunderground v.1.15,2013-08-10 17:19:00,
2013-08-10 13:24:00,86.7,76.6,29.11,NE,46,2.0,3.0,72,0.00,,,0.00,Wunderground v.1.15,2013-08-10 17:24:00,
2013-08-10 13:29:00,86.5,75.5,29.12,NW,325,3.0,3.0,70,0.00,,,0.00,Wunderground v.1.15,2013-08-10 17:29:00,
2013-08-10 13:38:00,86.6,76.0,29.11,NW,316,1.0,5.0,71,0.00,,,0.00,weatherlink.com 1.10,2013-08-10 17:38:00,
2013-08-10 13:44:00,86.8,76.7,29.11,NW,318,2.0,9.0,72,0.00,,,0.00,Wunderground v.1.15,2013-08-10 17:44:00,
2013-08-10 13:49:00,86.5,76.4,29.11,NW,315,2.0,2.0,72,0.00,,,0.00,Wunderground v.1.15,2013-08-10 17:49:00,
2013-08-10 13:54:00,86.2,76.1,29.11,NW,316,1.0,3.0,72,0.00,,,0.00,Wunderground v.1.15,2013-08-10 17:54:00,
2013-08-10 14:00:00,85.8,76.1,29.12,West,279,2.0,11.0,73,0.00,,,0.00,Wunderground v.1.15,2013-08-10 18:00:00,
2013-08-10 14:08:00,82.1,74.0,29.16,WNW,298,10.0,17.0,77,0.11,,,0.11,weatherlink.com 1.10,2013-08-10 18:08:00,
2013-08-10 14:14:00,79.1,73.5,29.16,South,171,5.0,10.0,83,7.68,,,0.54,Wunderground v.1.15,2013-08-10 18:14:00,
2013-08-10 14:19:00,76.3,71.8,29.16,NE,42,5.0,6.0,86,3.97,,,0.86,Wunderground v.1.15,2013-08-10 18:19:00,
2013-08-10 14:24:00,74.8,71.3,29.16,North,5,5.0,6.0,89,1.15,,,1.07,Wunderground v.1.15,2013-08-10 18:24:00,
2013-08-10 14:29:00,74.0,70.9,29.15,North,11,2.0,2.0,90,0.25,,,1.12,Wunderground v.1.15,2013-08-10 18:29:00,
2013-08-10 14:34:00,73.6,71.1,29.15,NW,319,1.0,6.0,92,0.16,,,1.13,Wunderground v.1.15,2013-08-10 18:34:00,
2013-08-10 14:39:00,73.5,71.4,29.14,NNW,336,1.0,1.0,93,0.07,,,1.13,Wunderground v.1.15,2013-08-10 18:39:00,
2013-08-10 14:44:00,73.6,71.8,29.13,North,360,0.0,6.0,94,0.04,,,1.13,Wunderground v.1.15,2013-08-10 18:44:00,
2013-08-10 14:49:00,73.8,72.3,29.13,NNE,19,0.0,6.0,95,0.00,,,1.13,Wunderground v.1.15,2013-08-10 18:49:00,
2013-08-10 14:54:00,74.1,72.6,29.13,NE,34,0.0,6.0,95,0.00,,,1.13,Wunderground v.1.15,2013-08-10 18:54:00,
2013-08-10 15:00:00,74.6,73.4,29.13,NE,34,0.0,0.0,96,0.00,,,1.13,Wunderground v.1.15,2013-08-10 19:00:00,
2013-08-10 15:08:00,75.4,74.0,29.12,NE,47,1.0,4.0,95,0.99,,,1.13,weatherlink.com 1.10,2013-08-10 19:08:00,
2013-08-10 15:14:00,75.9,74.4,29.12,NE,46,1.0,1.0,95,0.00,,,1.13,Wunderground v.1.15,2013-08-10 19:14:00,
2013-08-10 15:23:00,77.6,76.0,29.12,NE,34,1.0,2.0,95,0.07,,,1.13,weatherlink.com 1.10,2013-08-10 19:23:00,
2013-08-10 15:29:00,78.0,76.1,29.12,NNE,28,1.0,1.0,94,0.00,,,1.13,Wunderground v.1.15,2013-08-10 19:29:00,
2013-08-10 15:38:00,78.5,76.0,29.11,NNE,32,1.0,2.0,92,0.00,,,1.13,weatherlink.com 1.10,2013-08-10 19:38:00,
2013-08-10 15:44:00,78.8,75.9,29.12,NNE,30,0.0,20.0,91,0.00,,,1.13,Wunderground v.1.15,2013-08-10 19:44:00,
2013-08-10 15:49:00,79.1,76.6,29.12,NNE,26,0.0,20.0,92,0.00,,,1.13,Wunderground v.1.15,2013-08-10 19:49:00,
2013-08-10 15:54:00,80.2,77.3,29.11,NE,46,1.0,20.0,91,0.00,,,1.13,Wunderground v.1.15,2013-08-10 19:54:00,
2013-08-10 16:00:00,81.2,76.6,29.11,NNW,345,1.0,1.0,86,0.00,,,1.13,Wunderground v.1.15,2013-08-10 20:00:00,
2013-08-10 16:08:00,82.1,76.0,29.11,North,355,0.0,5.0,81,0.00,,,1.13,weatherlink.com 1.10,2013-08-10 20:08:00,
2013-08-10 16:14:00,82.3,75.5,29.10,NW,323,1.0,2.0,80,0.00,,,1.13,Wunderground v.1.15,2013-08-10 20:14:00,
2013-08-10 16:23:00,82.7,76.0,29.09,NW,310,2.0,6.0,80,0.00,,,1.13,weatherlink.com 1.10,2013-08-10 20:23:00,
2013-08-10 16:29:00,83.3,76.1,29.09,NW,318,2.0,2.0,79,0.00,,,1.13,Wunderground v.1.15,2013-08-10 20:29:00,
2013-08-10 16:34:00,83.2,76.0,29.09,North,360,2.0,4.0,79,0.00,,,1.13,Wunderground v.1.15,2013-08-10 20:34:00,
2013-08-10 16:44:00,83.3,76.1,29.09,NW,307,1.0,4.0,79,0.00,,,1.13,Wunderground v.1.15,2013-08-10 20:44:00,
2013-08-10 16:53:00,83.7,77.0,29.09,NW,311,1.0,4.0,81,0.00,,,1.13,weatherlink.com 1.10,2013-08-10 20:53:00,
2013-08-10 17:00:00,83.7,75.3,29.09,NW,320,1.0,2.0,76,0.00,,,1.13,Wunderground v.1.15,2013-08-10 21:00:00,
2013-08-10 17:08:00,84.0,77.0,29.09,NW,311,3.0,4.0,78,0.00,,,1.13,weatherlink.com 1.10,2013-08-10 21:08:00,
2013-08-10 17:14:00,84.1,75.7,29.10,NE,39,1.0,1.0,76,0.00,,,1.13,Wunderground v.1.15,2013-08-10 21:14:00,
2013-08-10 17:23:00,84.8,77.0,29.10,NE,49,1.0,3.0,77,0.00,,,1.13,weatherlink.com 1.10,2013-08-10 21:23:00,
2013-08-10 17:29:00,85.2,76.8,29.10,NE,45,1.0,1.0,76,0.00,,,1.13,Wunderground v.1.15,2013-08-10 21:29:00,
2013-08-10 17:34:00,85.4,76.6,29.10,NE,52,1.0,2.0,75,0.00,,,1.13,Wunderground v.1.15,2013-08-10 21:34:00,
2013-08-10 17:39:00,85.2,75.6,29.10,NE,56,2.0,7.0,73,0.00,,,1.13,Wunderground v.1.15,2013-08-10 21:39:00,
2013-08-10 17:49:00,84.7,76.3,29.10,NW,313,1.0,1.0,76,0.00,,,1.13,Wunderground v.1.15,2013-08-10 21:49:00,
2013-08-10 17:54:00,84.5,76.1,29.09,NW,313,0.0,7.0,76,0.00,,,1.13,Wunderground v.1.15,2013-08-10 21:54:00,
2013-08-10 18:00:00,84.2,76.2,29.09,NW,313,0.0,2.0,77,0.00,,,1.13,Wunderground v.1.15,2013-08-10 22:00:00,
2013-08-10 18:08:00,83.4,76.0,29.09,NW,314,0.0,2.0,78,0.00,,,1.13,weatherlink.com 1.10,2013-08-10 22:08:00,
2013-08-10 18:14:00,83.0,76.9,29.09,NW,314,0.0,0.0,82,0.00,,,1.13,Wunderground v.1.15,2013-08-10 22:14:00,
2013-08-10 18:19:00,82.8,76.7,29.09,NW,314,0.0,0.0,82,0.00,,,1.13,Wunderground v.1.15,2013-08-10 22:19:00,
2013-08-10 18:29:00,82.3,77.3,29.09,NW,314,0.0,1.0,85,0.00,,,1.13,Wunderground v.1.15,2013-08-10 22:29:00,
2013-08-10 18:34:00,82.0,77.4,29.09,NW,314,0.0,4.0,86,0.00,,,1.13,Wunderground v.1.15,2013-08-10 22:34:00,
2013-08-10 18:39:00,81.8,77.2,29.09,NW,314,0.0,4.0,86,0.00,,,1.13,Wunderground v.1.15,2013-08-10 22:39:00,
2013-08-10 18:49:00,81.6,77.0,29.09,NW,318,0.0,4.0,86,0.00,,,1.13,Wunderground v.1.15,2013-08-10 22:49:00,
2013-08-10 19:00:00,81.8,77.2,29.09,NW,318,0.0,0.0,86,0.00,,,1.13,Wunderground v.1.15,2013-08-10 23:00:00,
2013-08-10 19:08:00,81.8,77.0,29.09,NW,318,0.0,1.0,85,0.00,,,1.13,weatherlink.com 1.10,2013-08-10 23:08:00,
2013-08-10 19:14:00,81.7,76.7,29.10,NW,318,0.0,0.0,85,0.00,,,1.13,Wunderground v.1.15,2013-08-10 23:14:00,
2013-08-10 19:19:00,81.6,77.0,29.10,NW,319,0.0,0.0,86,0.00,,,1.13,Wunderground v.1.15,2013-08-10 23:19:00,
2013-08-10 19:25:00,81.5,77.0,29.10,NW,319,0.0,1.0,86,0.00,,,1.13,weatherlink.com 1.10,2013-08-10 23:25:00,
2013-08-10 19:34:00,81.2,76.6,29.10,NW,319,0.0,2.0,86,0.00,,,1.13,Wunderground v.1.15,2013-08-10 23:34:00,
2013-08-10 19:39:00,81.1,76.9,29.10,North,360,0.0,2.0,87,0.00,,,1.13,Wunderground v.1.15,2013-08-10 23:39:00,
2013-08-10 19:44:00,80.9,76.7,29.10,NW,323,0.0,2.0,87,0.00,,,1.13,Wunderground v.1.15,2013-08-10 23:44:00,
2013-08-10 19:49:00,80.7,76.8,29.10,NW,323,0.0,2.0,88,0.00,,,1.13,Wunderground v.1.15,2013-08-10 23:49:00,
2013-08-10 20:00:00,80.1,76.2,29.11,NW,321,0.0,0.0,88,0.00,,,1.13,Wunderground v.1.15,2013-08-11 00:00:00,
2013-08-10 20:09:00,79.6,76.1,29.11,NW,318,0.0,2.0,89,0.00,,,1.13,Wunderground v.1.15,2013-08-11 00:09:00,
2013-08-10 20:14:00,79.3,75.8,29.11,NW,319,0.0,2.0,89,0.00,,,1.13,Wunderground v.1.15,2013-08-11 00:14:00,
2013-08-10 20:19:00,79.0,75.8,29.11,NW,319,0.0,0.0,90,0.00,,,1.13,Wunderground v.1.15,2013-08-11 00:19:00,
2013-08-10 20:24:00,78.8,75.6,29.11,NW,319,0.0,0.0,90,0.00,,,1.13,Wunderground v.1.15,2013-08-11 00:24:00,
2013-08-10 20:29:00,78.6,75.4,29.11,North,360,0.0,0.0,90,0.00,,,1.13,Wunderground v.1.15,2013-08-11 00:29:00,
2013-08-10 20:34:00,78.4,75.6,29.11,NW,319,0.0,1.0,91,0.00,,,1.13,Wunderground v.1.15,2013-08-11 00:34:00,
2013-08-10 20:39:00,78.2,75.4,29.11,NW,319,0.0,1.0,91,0.00,,,1.13,Wunderground v.1.15,2013-08-11 00:39:00,
2013-08-10 20:44:00,78.0,75.2,29.11,NW,319,0.0,1.0,91,0.00,,,1.13,Wunderground v.1.15,2013-08-11 00:44:00,
2013-08-10 20:49:00,77.8,75.0,29.11,North,360,0.0,1.0,91,0.00,,,1.13,Wunderground v.1.15,2013-08-11 00:49:00,
2013-08-10 20:55:00,77.5,75.0,29.12,NW,320,0.0,0.0,92,0.00,,,1.13,weatherlink.com 1.10,2013-08-11 00:55:00,
2013-08-10 21:04:00,77.1,74.6,29.11,NW,319,0.0,0.0,92,0.00,,,1.13,Wunderground v.1.15,2013-08-11 01:04:00,
2013-08-10 21:10:00,76.9,75.0,29.11,NW,320,0.0,1.0,92,0.00,,,1.13,weatherlink.com 1.10,2013-08-11 01:10:00,
2013-08-10 21:19:00,76.8,74.6,29.12,NW,319,0.0,0.0,93,0.00,,,1.13,Wunderground v.1.15,2013-08-11 01:19:00,
2013-08-10 21:24:00,76.7,74.5,29.12,NW,319,0.0,0.0,93,0.00,,,1.13,Wunderground v.1.15,2013-08-11 01:24:00,
2013-08-10 21:29:00,76.6,74.4,29.12,NW,319,0.0,0.0,93,0.00,,,1.13,Wunderground v.1.15,2013-08-11 01:29:00,
2013-08-10 21:34:00,76.5,74.6,29.12,NW,320,0.0,2.0,94,0.00,,,1.13,Wunderground v.1.15,2013-08-11 01:34:00,
2013-08-10 21:40:00,76.5,75.0,29.12,NW,319,0.0,1.0,94,0.00,,,1.13,weatherlink.com 1.10,2013-08-11 01:40:00,
2013-08-10 21:49:00,76.4,74.5,29.13,NW,319,0.0,2.0,94,0.00,,,1.13,Wunderground v.1.15,2013-08-11 01:49:00,
2013-08-10 21:54:00,76.3,74.4,29.13,NW,319,0.0,2.0,94,0.00,,,1.13,Wunderground v.1.15,2013-08-11 01:54:00,
2013-08-10 22:00:00,76.3,74.4,29.13,NW,320,0.0,0.0,94,0.00,,,1.13,Wunderground v.1.15,2013-08-11 02:00:00,
2013-08-10 22:09:00,76.1,74.2,29.13,NW,319,0.0,0.0,94,0.00,,,1.13,Wunderground v.1.15,2013-08-11 02:09:00,
2013-08-10 22:19:00,75.9,74.0,29.13,NW,319,0.0,0.0,94,0.00,,,1.13,Wunderground v.1.15,2013-08-11 02:19:00,
2013-08-10 22:24:00,75.8,74.0,29.13,North,360,0.0,0.0,94,0.00,,,1.13,weatherlink.com 1.10,2013-08-11 02:24:00,
2013-08-10 22:29:00,75.8,74.3,29.13,NW,319,0.0,0.0,95,0.00,,,1.13,Wunderground v.1.15,2013-08-11 02:29:00,
2013-08-10 22:34:00,75.8,74.3,29.13,NW,319,0.0,1.0,95,0.00,,,1.13,Wunderground v.1.15,2013-08-11 02:34:00,
2013-08-10 22:40:00,75.8,74.0,29.13,NW,319,0.0,0.0,95,0.00,,,1.13,weatherlink.com 1.10,2013-08-11 02:40:00,
2013-08-10 22:49:00,75.7,74.2,29.13,NW,319,0.0,1.0,95,0.00,,,1.13,Wunderground v.1.15,2013-08-11 02:49:00,
2013-08-10 22:55:00,75.7,74.0,29.13,NW,320,0.0,0.0,95,0.00,,,1.13,weatherlink.com 1.10,2013-08-11 02:55:00,
2013-08-10 23:04:00,75.7,74.2,29.13,NW,319,0.0,0.0,95,0.00,,,1.13,Wunderground v.1.15,2013-08-11 03:04:00,
2013-08-10 23:10:00,75.6,74.0,29.13,North,360,0.0,0.0,95,0.00,,,1.13,weatherlink.com 1.10,2013-08-11 03:10:00,
2013-08-10 23:19:00,75.5,74.0,29.13,NW,319,0.0,0.0,95,0.00,,,1.13,Wunderground v.1.15,2013-08-11 03:19:00,
2013-08-10 23:24:00,75.5,74.0,29.13,NW,320,0.0,0.0,95,0.00,,,1.13,Wunderground v.1.15,2013-08-11 03:24:00,
2013-08-10 23:29:00,75.4,73.9,29.13,NW,319,0.0,0.0,95,0.00,,,1.13,Wunderground v.1.15,2013-08-11 03:29:00,
2013-08-10 23:39:00,75.3,73.8,29.13,NW,320,0.0,1.0,95,0.00,,,1.13,Wunderground v.1.15,2013-08-11 03:39:00,
2013-08-10 23:49:00,75.2,73.7,29.13,NW,319,0.0,1.0,95,0.00,,,1.13,Wunderground v.1.15,2013-08-11 03:49:00,
2013-08-10 23:54:00,75.2,73.7,29.13,North,360,0.0,1.0,95,0.00,,,1.13,Wunderground v.1.15,2013-08-11 03:54:00,